Location: Bangkok
(13.7500°N, 100.5170°E)
Time: 16:22:52
(UTC+07:00)

HST - Visible Passes

Search period start: 18 April 2014 00:00
Search period end: 28 April 2014 00:00
Orbit: 548 x 553 km, 28.5° (Epoch: 17 April)

Date Brightness Start Highest point End Pass type
(mag) Time Alt. Az. Time Alt. Az. Time Alt. Az.
18 Apr 3.4 19:26:22 10° NW 19:28:47 15° NNW 19:31:13 10° NNE visible
19 Apr 3.4 19:20:38 10° NW 19:22:33 13° N 19:24:28 10° NNE visible
20 Apr 3.5 19:14:56 10° NNW 19:16:19 11° N 19:17:42 10° NNE visible
21 Apr 3.5 19:09:14 10° NNW 19:10:06 11° N 19:10:57 10° N visible
21 Apr 3.8 20:50:39 10° NNW 20:50:47 10° NNW 20:50:47 10° NNW visible
22 Apr 3.6 19:03:24 10° N 19:03:53 10° N 19:04:21 10° N visible
22 Apr 3.6 20:43:52 10° NNW 20:44:40 12° NNW 20:44:40 12° NNW visible
23 Apr 3.5 18:57:00 10° N 18:57:39 10° N 18:58:19 10° NNE visible
23 Apr 3.3 20:37:07 10° NNW 20:38:32 15° N 20:38:32 15° N visible
24 Apr 3.4 18:50:15 10° N 18:51:25 11° N 18:52:35 10° NNE visible
24 Apr 3.0 20:30:22 10° NW 20:32:24 19° N 20:32:24 19° N visible
25 Apr 2.6 20:23:39 10° NW 20:26:15 25° N 20:26:15 25° N visible
26 Apr 2.0 20:16:58 10° NW 20:20:08 34° N 20:20:08 34° N visible
27 Apr 1.3 20:10:20 10° NW 20:14:02 50° N 20:14:02 50° N visible
